Theta_e
356 361 365 363 361 360 359 358 359 358 359 360 361 361 361 360 360 360 359 356 357 357 355 356 355 354 353 353 353 353 352 351 350 350 351 351 351 351 352 350 348 345 347
357 359 364 363 362 360 359 359 359 359 359 359 360 360 361 360 359 358 357 357 358 356 356 355 355 354 353 353 353 353 354 353 352 350 348 348 349 349 353 348 348 346 346
357 360 361 363 362 361 359 359 359 359 359 358 359 360 360 360 359 358 357 358 357 356 356 356 356 356 356 355 355 355 355 354 353 352 350 343 342 349 349 348 348 349 347
357 359 360 363 361 361 359 358 358 359 360 359 358 358 358 359 358 356 357 357 356 356 356 357 357 357 356 354 353 352 352 351 351 352 349 350 346 348 348 349 348 348 348
356 359 359 362 361 360 359 357 358 359 360 360 358 358 357 357 357 357 357 357 356 356 357 357 357 356 354 353 352 351 352 351 351 350 341 341 346 349 350 350 349 350 350
355 358 361 361 360 360 359 358 358 359 360 360 359 357 357 356 357 357 357 357 357 356 356 358 357 354 353 352 353 353 353 353 352 342 340 338 343 351 354 351 350 350 351
353 357 359 360 360 360 359 358 358 358 359 360 359 358 357 357 356 357 357 356 356 355 355 356 356 355 354 354 353 353 353 353 346 341 338 336 339 351 356 355 355 354 352
353 355 357 359 359 359 359 358 357 358 359 360 359 359 358 356 356 356 356 356 357 356 355 354 354 354 353 352 352 352 352 351 346 341 338 335 339 348 356 357 356 357 353
354 354 355 355 357 359 358 358 357 357 358 358 358 358 357 356 356 355 356 356 356 356 356 355 354 353 352 352 351 351 351 350 342 340 340 337 342 348 354 357 357 357 355
352 353 353 354 355 354 354 358 357 357 357 357 357 357 355 355 355 355 353 354 354 354 354 354 354 353 352 351 350 350 350 349 339 337 335 334 344 346 354 357 357 356 355
348 350 353 353 352 351 350 354 356 356 357 356 356 356 352 347 348 349 350 352 354 354 353 353 353 352 352 351 351 350 350 340 337 337 335 340 346 347 353 358 358 357 356
343 346 350 352 350 351 352 350 349 351 350 349 348 348 344 343 343 348 350 353 354 354 354 353 353 353 351 342 340 343 334 332 333 334 335 346 349 351 354 356 359 359 357
343 345 348 349 349 348 349 350 349 347 347 346 345 344 341 342 339 343 341 341 341 348 344 345 342 340 339 338 337 333 330 329 329 334 337 347 348 353 357 356 360 359 357
342 345 345 346 347 345 348 348 347 346 343 342 343 342 340 337 335 336 339 339 339 339 338 338 335 333 333 333 333 331 330 329 331 334 336 347 348 350 356 359 359 359 356
338 342 344 343 342 342 347 343 342 342 342 341 340 340 339 336 334 335 338 339 338 338 336 334 334 333 331 332 332 332 334 334 334 336 335 346 349 351 356 358 359 359 357
335 337 340 338 334 339 338 337 339 338 339 337 336 338 339 335 332 333 335 338 339 338 337 335 334 333 332 332 334 335 336 337 337 339 340 343 349 349 352 354 356 357 358
332 334 334 336 335 336 334 336 335 337 336 335 335 337 339 338 334 332 335 338 338 339 337 335 334 334 333 333 332 334 334 334 335 339 343 344 337 341 340 343 343 343 353
337 336 337 339 335 334 332 333 335 335 335 337 336 336 340 340 339 338 340 342 341 338 338 338 336 332 330 329 329 331 333 338 341 344 342 340 335 338 337 336 342 341 351
333 335 338 341 342 340 337 335 338 341 339 339 339 340 341 343 344 344 344 343 344 343 342 338 335 332 330 330 332 335 335 337 339 341 338 340 335 336 336 338 342 345 350
333 332 333 335 334 335 343 344 344 343 347 346 344 345 346 345 347 345 345 346 344 342 339 338 333 331 328 326 333 332 331 335 336 334 334 338 338 335 335 336 339 343 348
333 331 328 330 332 333 333 340 343 344 344 347 348 349 350 349 349 346 344 344 342 340 337 337 335 331 328 326 325 325 327 333 330 330 331 331 332 335 337 340 341 340 339
332 332 331 330 332 332 337 340 347 345 346 346 345 344 344 345 347 346 342 342 340 338 337 336 333 331 329 327 323 321 318 324 327 330 330 331 330 333 336 335 335 335 336
329 332 327 329 328 335 336 339 344 344 343 341 342 343 345 347 346 343 341 337 335 336 336 335 335 331 328 329 329 326 321 321 326 330 329 330 330 329 330 332 333 333 334
326 329 326 328 326 328 332 333 342 339 337 340 340 337 337 339 338 337 336 334 331 329 328 329 327 330 333 325 332 332 329 329 322 320 324 325 321 325 324 325 322 330 331
327 322 326 329 328 332 335 342 339 338 339 338 335 332 331 329 330 330 328 326 324 323 323 320 316 315 318 316 318 317 319 318 315 310 310 309 312 314 316 313 322 324 324
326 329 329 330 336 340 340 338 338 336 334 331 327 324 322 319 318 319 320 318 316 314 312 312 310 310 310 309 310 310 308 307 306 304 302 303 303 307 309 311 313 316 315
Wind_Speed
9 11 15 16 17 17 18 19 18 18 16 17 18 18 18 18 16 15 16 15 15 14 14 13 12 11 11 11 12 12 11 10 10 9 9 8 6 4 8 8 7 4 6
15 15 17 16 18 18 18 18 18 17 16 16 16 17 17 16 16 15 14 13 13 15 14 13 12 11 11 11 11 10 9 9 8 7 5 4 4 3 10 8 9 6 5
16 13 13 16 18 19 18 17 17 16 16 16 16 15 15 15 15 15 13 12 12 13 13 12 11 10 10 10 9 8 7 6 5 3 3 2 3 5 6 8 10 10 8
17 12 12 16 18 19 19 17 17 16 15 15 15 15 15 14 13 13 12 12 13 12 10 10 9 9 8 7 6 5 4 3 1 2 3 4 5 8 7 8 9 9 9
15 12 14 17 18 19 19 18 17 16 15 14 14 14 14 14 13 12 11 11 12 11 9 8 7 5 5 4 3 2 1 2 3 4 4 5 5 6 10 11 10 10 9
16 14 17 19 19 19 19 18 17 16 15 14 14 13 13 13 12 11 10 9 10 10 8 6 4 3 1 1 1 2 4 4 6 4 5 6 6 8 12 12 12 11 10
15 14 14 18 19 20 19 18 17 15 14 14 14 13 12 10 10 10 9 8 9 8 7 5 4 3 3 4 5 6 7 8 5 4 6 5 3 9 12 13 13 12 12
15 16 12 16 17 19 19 17 16 16 15 14 13 13 11 10 9 8 8 8 7 6 5 5 4 4 5 7 8 9 10 11 6 4 5 5 8 8 13 14 14 13 14
10 14 11 11 13 18 18 18 17 15 14 12 11 10 10 9 8 6 5 5 5 4 4 4 4 5 6 8 9 10 11 13 6 3 6 4 9 11 15 15 14 15 15
12 11 11 8 9 8 9 16 15 14 12 11 9 8 8 8 7 7 7 6 6 5 5 5 5 6 8 9 10 10 11 14 6 5 4 4 12 12 12 16 15 16 16
11 11 9 10 12 5 5 9 11 13 11 9 8 8 6 3 4 5 5 5 4 5 5 5 6 8 9 9 10 11 14 3 5 4 4 12 13 15 13 17 17 17 17
16 14 13 10 12 7 7 5 5 5 3 3 3 4 3 3 2 2 3 5 6 7 7 8 8 8 8 4 4 10 4 5 4 4 4 13 15 16 15 16 18 18 16
14 12 13 12 11 7 6 5 3 2 3 3 4 3 2 2 1 1 1 2 3 6 3 4 4 3 5 4 5 5 5 5 3 4 7 13 15 17 16 15 18 18 15
13 13 14 12 9 4 4 4 5 3 3 3 4 5 4 2 2 2 3 4 3 2 4 4 3 5 6 6 6 7 6 5 5 4 6 13 14 16 16 14 17 15 15
16 12 9 7 5 4 7 3 3 4 4 4 4 5 4 4 4 4 4 3 4 3 4 4 4 4 6 6 5 6 7 7 6 5 4 11 13 15 15 15 17 15 15
9 10 14 12 8 7 5 6 5 4 5 4 4 5 7 5 4 4 4 4 4 4 4 4 4 5 6 5 7 6 7 6 6 6 3 5 15 21 23 25 23 19 16
6 7 3 8 11 9 8 7 5 5 5 4 5 5 6 6 5 4 4 4 5 4 4 4 4 4 5 4 6 5 5 6 5 4 2 2 3 13 21 29 30 33 20
11 8 6 3 1 3 6 6 4 4 4 5 4 4 6 5 5 5 4 4 4 3 2 2 3 4 4 4 4 5 5 4 2 4 5 4 3 2 9 7 18 17 32
14 10 8 8 6 4 5 3 4 4 4 4 3 4 6 6 6 5 4 4 3 1 2 2 2 2 2 3 4 5 2 4 4 3 6 3 3 5 5 10 19 19 24
13 12 9 5 6 8 10 5 2 2 2 3 5 5 6 6 8 7 5 4 2 1 2 2 2 2 2 3 5 7 5 4 4 5 5 4 4 4 6 5 8 11 15
10 10 9 8 6 6 5 10 4 3 2 2 2 6 6 5 4 2 1 3 1 1 3 4 2 2 2 3 4 5 3 6 6 4 4 5 5 5 4 5 6 5 6
14 11 9 8 6 9 4 5 7 5 4 2 2 4 3 3 4 3 3 4 6 3 4 3 3 3 1 3 2 2 6 5 3 4 4 3 5 3 4 5 7 7 7
9 9 3 10 9 8 9 6 9 6 1 3 2 3 7 9 9 7 6 4 4 2 3 4 4 5 3 2 3 3 3 3 5 5 6 5 7 5 6 7 8 6 9
8 5 4 7 8 8 8 5 14 3 2 3 5 6 6 11 11 10 9 8 8 5 7 7 7 4 3 4 2 2 3 3 4 5 4 5 9 7 10 8 8 7 8
7 7 6 6 2 7 3 12 5 6 8 6 4 11 10 11 11 11 11 10 10 7 8 9 8 8 6 4 4 4 3 3 4 3 6 6 8 6 6 9 9 7 9
7 7 7 6 1 3 5 1 7 13 9 9 9 8 7 7 7 10 11 9 7 7 7 6 6 8 6 5 3 4 3 3 4 3 4 6 6 4 10 6 7 6 7
Wind_Direction
165 153 152 137 126 122 120 117 114 113 112 113 114 114 116 118 116 118 123 123 124 125 122 120 117 113 111 106 101 99 102 103 104 104 109 114 113 105 152 132 128 125 124
144 160 150 142 133 128 125 122 119 118 117 116 115 116 121 121 117 119 123 124 128 129 129 128 123 117 111 105 101 100 99 98 94 97 108 122 134 122 139 148 148 149 147
145 150 147 145 138 132 129 128 126 123 123 123 120 120 120 119 121 123 126 130 131 130 132 131 125 121 114 109 105 101 99 99 103 133 167 176 200 207 181 178 167 159 162
148 150 146 151 142 136 134 134 131 129 126 125 125 124 122 122 125 129 135 140 137 137 137 131 125 120 113 107 103 95 87 88 105 269 256 235 225 216 218 206 190 173 177
154 151 152 153 146 141 138 140 137 136 133 132 132 131 130 132 135 140 142 144 143 142 142 135 129 125 122 118 109 97 35 335 318 313 290 269 241 227 217 224 210 193 195
157 159 154 155 151 145 143 146 145 145 143 141 141 140 141 144 145 145 145 148 152 150 149 144 145 157 172 198 295 301 304 313 318 312 302 292 239 226 211 225 229 212 209
159 162 153 157 154 148 148 150 148 148 147 149 152 153 153 149 145 149 151 152 155 161 161 163 179 222 266 293 307 310 316 323 327 324 315 322 298 234 213 217 234 229 219
157 162 151 158 157 150 150 154 154 157 161 162 161 160 159 159 156 154 153 159 165 167 175 191 219 261 284 302 311 318 322 326 330 329 315 310 305 265 229 220 228 233 223
158 158 149 157 164 158 157 159 161 166 167 168 167 162 158 158 159 155 153 165 174 183 194 216 246 268 285 297 305 310 317 316 319 310 301 291 291 294 252 232 233 231 227
166 166 154 150 157 160 164 163 161 169 170 170 166 159 162 158 156 159 172 190 197 207 223 238 257 281 289 294 296 301 300 303 300 288 262 260 273 279 265 238 237 237 237
171 174 156 153 164 156 150 169 162 168 168 163 168 170 165 145 167 176 193 213 225 234 252 259 263 266 277 289 296 298 297 279 280 279 282 278 273 278 260 240 235 235 235
172 174 173 162 170 155 158 141 124 154 134 143 159 166 157 154 186 203 221 230 245 241 249 262 267 275 287 286 286 294 289 288 279 283 279 284 284 287 280 258 236 234 237
177 169 174 174 173 166 149 142 137 137 143 158 175 163 166 148 227 284 300 284 271 264 251 266 284 286 282 278 279 281 281 290 277 269 277 284 284 294 291 258 235 235 236
174 174 175 174 169 142 133 157 162 152 156 174 187 174 170 194 220 249 256 258 257 271 276 263 271 270 269 263 261 284 282 272 274 274 271 277 281 284 288 263 248 243 238
169 164 162 138 125 124 164 167 165 174 183 185 192 195 183 195 201 203 230 240 242 227 241 262 262 268 267 261 255 242 266 267 266 269 274 294 287 293 289 275 260 251 245
161 161 154 154 155 159 170 179 192 195 196 191 192 203 201 197 199 213 242 256 248 211 222 243 253 261 264 261 276 263 265 267 263 273 328 321 358 4 356 336 309 276 250
93 114 148 165 163 172 182 188 191 205 198 199 208 207 206 199 208 204 228 250 256 238 249 254 267 263 266 281 275 282 275 274 274 288 71 110 51 42 19 3 348 336 303
87 99 92 64 133 252 183 187 198 205 199 215 205 194 221 211 191 205 224 233 240 212 229 247 265 275 277 265 271 272 261 283 356 171 185 185 137 75 66 51 282 277 283
110 91 72 66 55 339 286 234 202 205 227 223 200 198 215 200 192 209 226 246 230 226 239 274 275 264 294 300 279 274 299 283 237 258 253 225 205 204 197 211 262 275 271
122 122 122 91 64 44 7 298 281 237 277 246 223 220 199 192 196 202 213 233 256 270 307 307 322 348 337 321 300 297 288 277 261 268 289 284 279 294 270 260 276 281 281
135 133 136 141 118 73 358 333 268 195 203 251 217 216 207 203 194 147 121 227 26 346 13 26 8 352 305 323 325 316 291 263 273 300 280 259 260 261 291 284 290 281 297
170 173 173 162 143 108 53 336 261 269 215 234 213 64 34 51 86 125 64 28 33 7 9 26 16 331 313 331 326 281 318 333 328 281 276 287 308 311 320 303 283 294 293
178 198 134 126 103 136 143 229 257 213 233 95 48 44 35 56 47 43 49 7 358 359 5 10 11 4 339 316 295 316 321 283 330 323 319 337 360 350 351 345 349 323 308
193 129 136 128 139 214 151 301 247 164 156 37 65 80 64 55 54 56 53 55 61 49 46 39 23 10 6 19 336 327 261 275 313 311 346 345 0 359 348 349 328 334 340
112 114 161 98 66 55 25 249 141 148 92 92 70 77 48 48 51 54 57 56 47 45 48 48 38 31 32 35 11 332 336 319 41 307 309 331 327 359 350 328 334 354 7
117 125 114 121 24 188 196 115 93 93 94 89 70 64 56 53 48 53 63 64 61 55 49 43 40 39 32 35 24 23 30 5 334 337 307 322 301 311 310 341 351 4 358